Погода в Факаофо

Токелау     11°03′34″S   171°03′50″W
темп.,
°C
ветер,
м/с
пор.,
м/с
влажн.,
%
обл.,
%
осадки,
мм/ч
давл.,
гПа
погр.,
м
13 мая, чт
чт1301:00+28вюв33745 0.6 1010744
04:00+28вюв337378 0.1 1009770
07:00+28в337273 0.2 1010761
10:00+28в337484 0.0 1011755
13:00+28вюв227597 0.6 1010509
16:00+28вюв227411 0.2 1008715
19:00+28в337430 0.3 1010738
22:00+28в337633 0.8 1011706
14 мая, пт
пт1401:00+28в33765 1.2 1011634
04:00+28в2375100 0.4 1010704
07:00+28всв337411 0.4 1012777
10:00+28всв447410 0.3 1013818
13:00+28всв447411 0.8 1011803
16:00+28всв337380 0.0 1009807
19:00+28в347318 0.0 1011819
22:00+28в457411 0.0 1012825
15 мая, сб
сб1501:00+28в557426 0.8 1012849
04:00+28в666465 0.3 1011971
07:00+28в66645 0.3 1013985
10:00+28вюв677411 0.0 1014949
13:00+29в777270 0.6 10121036
16:00+29в887245 0.3 10101034
19:00+29в88632 0.3 10121038
22:00+29в89740 0.0 10131094
16 мая, вс
вс1601:00+29в99674 0.1 10121311
04:00+29в89707 0.0 10111172
07:00+29в910769 0.3 10121077
10:00+29вюв910755 0.1 10131085
13:00+29вюв99751 0.4 10111057
16:00+29вюв910755 0.8 10101047
19:00+29вюв910754 1.3 10111030
22:00+29вюв9107610 0.5 10121016
17 мая, пн
пн1701:00+29вюв910770 1.1 1011966
04:00+28вюв897722 1.5 1010929
07:00+28в897712 2.8 1012963
10:00+28в897626 2.1 1012958
13:00+28в78776 3.6 1011877
16:00+28в787912 4.1 1009654
19:00+28в787825 6.0 1010752
22:00+29в89765 0.1 1011979